Location: Baia Mare
(47.6567°N, 23.5850°E)
Time: 01:37:22
(UTC+03:00)

ISS - Pass Details

Date: 26 July 2018
Orbit: 402 x 408 km, 51.6° (Epoch: 19 July)

Event Time Altitude Azimuth Distance (km) Brightness Sun altitude
Rises 01:16:01 0° 293° (WNW) 2,327 0.4 -22.7°
Reaches altitude 10° 01:18:06 10° 295° (WNW) 1,466 -0.7 -22.8°
Enters shadow 01:19:52 29° 300° (WNW) 776 -2.2 -22.8°
